Vorticity
10 10 10 14 15 13 11 8 8 6 8 8 8 10 12 15 11 10 10 10 12 14 15 18 17 15 15 14 16 16 13 10 4 1 0 3 6 7 7 7 5 5 6 6 7 4 1 -0 5 8 1 4 3 2 11 11 13 18 24 11 -1 28 33 7 4 5 2 1 0 2 3 3 2 2 3 4 4 4 3 3 3 3 4 3 3 3 4 5 5 5 5 5 5 5 5 5 6
10 11 15 19 16 10 7 8 9 6 11 11 9 11 14 15 13 13 14 15 16 17 18 17 13 11 15 13 11 10 7 6 2 -0 3 6 5 7 6 6 5 2 6 5 6 5 2 5 6 5 -1 1 0 1 12 14 16 22 20 13 -1 8 30 21 8 7 6 2 -1 1 1 4 4 2 2 1 3 4 3 3 3 3 3 3 3 3 4 4 5 5 5 5 5 5 5 5 5
13 18 21 17 9 8 8 10 10 6 8 12 12 13 15 14 16 17 19 21 20 23 23 21 14 9 12 12 11 5 3 7 8 6 4 6 5 4 4 4 6 3 6 5 5 8 5 9 7 4 5 2 6 9 12 12 9 13 10 8 7 1 17 27 14 7 7 4 1 1 2 3 4 5 3 1 1 2 4 4 4 4 4 5 3 3 4 4 5 4 4 4 4 5 5 5 4
21 22 16 8 6 9 10 9 10 9 11 15 16 20 20 19 23 17 15 21 19 16 15 14 12 9 8 5 11 11 8 8 4 5 2 1 2 2 4 2 5 5 5 7 6 8 6 6 4 2 7 9 17 13 7 12 5 6 8 9 12 5 11 23 17 8 5 5 5 2 2 2 3 5 5 5 4 2 2 3 3 3 4 4 3 3 3 5 5 4 3 3 3 4 4 4 4
22 15 6 6 7 7 10 10 12 14 15 14 13 20 16 14 20 11 6 16 15 9 10 9 5 8 11 4 6 8 6 5 -1 1 1 -0 3 2 3 1 2 5 5 8 7 5 5 4 8 9 11 17 16 11 10 8 7 16 15 8 7 5 11 22 16 6 4 5 5 3 2 2 3 3 3 5 5 5 3 2 2 1 1 1 1 1 0 1 2 3 3 3 3 4 3 2 4
16 8 6 8 7 8 14 12 14 15 17 14 11 17 11 6 9 6 -1 0 7 6 9 9 6 7 7 6 4 4 2 4 3 3 4 2 6 6 6 5 3 6 6 6 5 5 11 13 14 13 13 12 4 4 8 5 14 20 5 -2 9 12 13 21 16 5 5 4 4 3 1 1 2 3 3 3 2 4 4 4 4 2 1 -0 -0 -1 -1 -2 -1 1 2 3 3 3 3 3 5
10 10 10 8 7 9 13 10 10 8 12 11 2 5 7 8 6 10 4 -5 4 2 3 5 6 5 1 5 2 2 4 5 8 6 8 7 9 14 16 16 12 10 8 9 12 13 17 20 20 16 14 13 9 10 10 11 18 15 2 4 18 13 11 25 16 5 7 3 3 3 3 4 3 5 5 3 2 2 3 4 5 5 4 2 2 0 -0 -1 -2 -0 1 2 3 3 3 4 4
7 9 4 4 6 5 12 9 8 1 3 6 -2 -1 3 7 1 4 7 -2 4 1 1 4 6 5 1 4 -1 0 5 3 6 10 14 12 15 21 21 20 19 17 15 16 16 18 11 11 28 28 21 22 19 20 25 24 15 17 20 20 22 5 6 31 16 4 9 2 4 5 5 4 3 6 5 5 5 4 3 2 3 5 5 4 4 3 2 0 -0 -1 0 2 2 3 4 4 2
4 6 -1 4 5 4 16 5 3 3 -0 7 3 2 2 6 1 -4 4 2 1 1 1 2 4 2 1 4 1 3 5 3 5 13 17 13 15 17 16 14 15 16 16 17 12 15 1 -8 24 33 19 14 9 12 25 27 13 13 20 17 12 -1 10 32 14 3 6 2 5 5 5 5 4 6 5 7 9 9 6 4 4 3 4 3 3 5 3 2 1 1 1 2 2 3 3 3 2
2 4 -2 5 6 5 18 2 -1 3 -2 6 5 5 1 -0 1 -5 2 3 -3 -1 6 10 10 4 3 4 3 9 10 12 14 12 14 16 15 7 10 10 7 10 9 13 8 6 -4 -12 18 29 17 13 8 11 16 17 14 14 14 10 3 4 23 25 8 4 4 4 6 4 6 4 4 4 3 4 8 12 11 10 9 6 5 2 3 7 6 3 2 2 3 5 4 3 3 3 4
2 4 -2 4 6 2 15 5 -1 -0 -3 0 -3 6 6 0 5 4 1 0 0 2 8 14 12 7 6 7 11 19 14 12 15 9 8 16 17 5 8 9 9 14 10 13 7 6 7 9 25 20 11 14 5 7 18 10 8 21 17 10 11 18 26 16 8 8 4 5 5 4 5 4 5 5 6 6 8 12 12 13 12 10 9 7 7 9 8 4 3 2 5 7 4 3 4 4 6
2 3 -2 3 6 0 9 9 4 2 1 -3 -9 -6 -4 -4 0 7 4 -2 4 6 8 13 14 15 13 12 13 15 10 8 12 12 9 10 11 7 9 10 12 16 13 16 13 13 12 11 26 22 7 9 3 -8 -2 -4 -3 17 13 6 19 22 17 12 7 4 3 5 6 9 11 11 12 10 10 9 8 9 9 11 11 11 15 17 14 11 9 5 4 3 6 8 4 5 4 5 6
2 2 -2 2 7 1 3 6 8 6 4 -1 -3 0 -3 -5 -6 -0 3 -1 6 10 16 16 10 13 13 12 10 9 10 11 12 12 11 10 10 11 11 8 7 7 7 14 15 17 14 2 10 25 19 20 34 11 -22 -14 6 14 14 17 24 16 9 7 4 5 9 11 12 14 14 14 14 11 10 8 7 7 7 7 7 9 17 23 18 12 10 7 5 5 8 6 3 6 5 5 5
2 4 -3 -0 6 2 0 1 3 4 7 -1 -4 12 9 2 1 -1 -0 0 3 6 14 15 8 7 8 10 9 8 9 10 10 9 11 12 12 12 10 7 6 6 7 10 11 11 15 9 -0 9 19 19 43 48 9 5 23 20 23 29 19 7 6 6 7 11 12 13 12 9 9 11 10 9 8 9 7 4 4 4 3 4 9 14 13 10 8 6 6 5 6 3 3 6 5 5 5
1 6 -3 0 8 3 -1 -3 -2 0 5 -2 -5 10 6 1 5 -0 2 3 -3 -5 -0 9 14 9 7 10 8 9 10 12 13 13 16 15 12 11 9 8 6 6 7 8 7 6 7 12 8 2 9 8 16 42 44 36 33 29 25 16 6 3 4 5 5 6 6 7 7 5 7 6 6 6 6 7 5 3 2 1 2 2 2 3 5 6 6 4 4 3 2 1 3 6 5 4 8
0 5 -3 -0 9 6 4 1 1 5 6 1 2 7 3 4 5 -0 2 1 -2 -1 -1 7 16 10 9 12 10 11 13 13 13 14 18 15 12 10 6 3 2 4 7 8 6 7 6 7 11 7 6 9 5 13 35 43 28 15 11 3 4 7 3 2 0 0 2 2 2 3 4 4 5 5 5 6 5 3 2 2 2 1 1 2 3 3 4 4 1 0 1 1 3 7 6 7 11
-0 2 -1 -1 6 10 10 7 6 11 10 5 6 3 -0 3 1 0 2 -2 -0 5 5 11 17 12 11 12 12 13 10 9 8 9 11 9 6 3 1 1 4 7 5 7 7 6 8 6 7 9 7 10 11 7 13 27 18 4 11 12 8 6 3 3 1 0 1 0 1 1 1 2 3 3 4 6 7 6 5 5 4 3 1 1 3 2 2 4 2 -0 0 1 4 7 8 11 12
1 0 2 2 3 8 6 5 8 9 5 1 3 -1 -2 2 2 -1 -1 -1 3 8 13 20 20 19 19 16 14 12 9 7 4 2 2 2 2 2 4 5 5 5 3 4 7 6 6 7 6 7 8 7 10 12 9 14 13 9 18 17 5 3 2 2 3 2 2 0 0 -1 -0 1 1 2 3 3 4 5 7 8 8 8 5 2 2 2 1 2 3 1 1 3 5 8 11 13 10
3 0 -0 2 3 7 4 1 5 6 -1 -1 -1 -4 0 5 2 -2 -2 4 6 7 13 20 15 15 20 13 9 8 6 4 -0 -1 1 3 6 7 7 6 5 6 9 7 5 6 5 6 8 6 8 7 5 8 10 9 8 7 15 13 3 0 -0 1 2 2 2 1 1 -0 -0 1 1 2 2 0 1 2 4 5 7 9 10 8 5 4 3 2 3 3 5 7 8 10 13 12 6
4 2 -3 -1 1 2 3 -0 -0 2 -2 -0 0 -2 3 4 2 -0 2 4 3 1 3 13 9 6 11 6 2 3 2 1 -1 -1 2 5 6 6 6 7 10 10 9 7 3 3 5 5 7 7 6 7 5 6 8 9 10 7 8 9 4 2 0 1 1 1 2 1 2 1 -1 -1 0 2 3 1 1 2 2 2 3 5 9 10 10 9 7 6 6 6 7 8 9 12 12 9 5
1 2 -3 -3 1 -2 2 2 -2 2 2 1 2 3 4 3 2 2 2 -0 1 2 1 7 11 9 10 4 1 0 1 2 2 2 3 5 6 7 10 10 9 7 3 2 3 3 5 7 7 8 7 6 7 6 4 5 10 9 5 5 5 5 3 1 0 1 2 2 2 0 -2 -0 1 2 2 2 2 3 3 3 3 3 4 5 6 8 10 10 8 8 8 7 9 11 10 7 4
-0 3 1 -0 3 -1 1 1 -5 -0 3 1 3 6 4 2 2 3 5 6 9 11 5 8 13 15 11 6 5 3 4 5 3 4 4 6 9 10 10 8 3 1 2 3 5 7 7 9 8 9 8 7 6 5 4 4 6 8 8 6 4 4 4 4 3 3 4 3 3 2 0 1 3 2 1 3 3 3 4 5 6 5 5 3 2 4 8 11 9 8 8 8 9 9 8 5 5
2 5 3 2 3 -1 -2 1 -1 1 1 1 2 3 4 4 5 9 9 8 15 15 11 14 14 10 7 6 6 6 7 6 5 4 4 6 9 11 7 4 2 0 3 5 7 9 9 9 9 8 8 7 7 6 6 5 4 5 8 7 4 4 5 6 6 5 6 5 4 4 4 3 4 4 5 4 3 5 5 6 6 6 6 5 5 5 7 10 9 7 8 9 8 7 6 5 6
2 3 4 2 0 1 2 1 2 4 2 2 1 1 2 1 3 7 3 2 13 16 13 17 16 9 7 9 9 9 9 6 6 3 3 4 5 8 6 1 0 1 3 5 6 8 9 10 9 9 9 8 7 7 7 6 6 6 6 6 5 4 4 5 6 6 6 7 6 5 6 6 4 4 6 6 5 5 5 6 6 6 6 6 7 7 9 10 9 7 7 7 6 7 6 5 8
1 1 3 3 1 1 -1 -2 2 5 6 5 4 4 2 3 3 2 -0 5 13 15 16 18 16 14 12 12 12 11 10 8 7 5 2 1 2 5 4 1 -0 1 4 6 5 6 9 9 9 10 11 12 10 9 8 7 7 6 5 5 6 6 5 5 5 6 6 6 6 6 7 7 6 5 7 7 6 6 6 7 6 7 7 6 7 8 10 11 10 8 6 6 5 6 6 7 9
4 3 1 4 4 0 -2 -0 5 4 4 4 4 7 8 11 14 11 8 11 12 13 15 13 10 11 9 7 8 9 9 9 8 8 7 3 5 7 5 2 1 3 6 6 5 6 9 9 9 9 9 11 12 12 11 9 8 7 7 6 6 6 6 6 6 6 6 6 5 6 7 7 7 7 9 8 8 8 7 7 7 8 7 6 8 8 8 10 11 9 6 5 5 6 8 9 10
4 5 0 3 3 2 3 4 7 5 3 3 5 12 14 15 16 15 12 10 15 19 12 5 4 5 5 3 4 7 7 8 8 8 10 9 12 12 7 3 3 9 10 9 8 8 8 8 8 9 9 10 11 13 13 12 10 9 8 7 7 7 7 7 7 7 7 7 6 6 7 7 7 8 9 9 9 9 8 8 9 10 9 7 8 6 1 3 9 10 7 5 4 8 10 10 10
1 3 1 -1 -2 2 4 4 5 2 3 8 12 14 12 12 12 11 11 11 18 22 11 3 4 3 4 5 6 7 6 7 8 8 10 12 13 9 4 2 5 12 14 12 9 8 8 8 9 10 10 11 10 12 13 13 12 11 10 9 9 9 8 8 8 8 7 8 8 7 7 7 7 9 10 9 9 10 9 9 9 10 10 8 7 6 -4 -8 3 9 8 5 5 7 9 10 9
1 0 -0 -4 -3 3 2 2 1 -4 3 10 14 14 9 11 11 9 10 12 14 14 8 4 7 6 5 7 8 8 8 7 7 8 9 10 11 8 4 4 6 10 12 10 6 6 8 9 10 9 9 9 10 12 12 13 13 12 10 9 9 9 9 9 9 8 7 8 8 8 8 7 7 9 10 10 10 10 9 8 8 7 9 9 8 7 -0 -8 -1 7 8 6 6 8 8 11 9
5 0 0 0 3 5 2 5 3 -2 3 7 12 13 10 10 9 8 8 9 10 8 4 3 7 9 5 6 10 10 10 9 8 7 8 9 11 11 8 5 6 9 11 10 5 3 5 10 11 7 5 5 7 10 11 12 13 13 11 9 9 9 9 9 9 9 9 8 8 8 8 8 9 10 10 11 10 9 10 9 7 6 6 9 9 8 7 2 2 5 7 6 5 8 9 11 10
8 5 4 6 8 6 5 10 8 4 3 5 13 12 7 7 6 7 9 7 8 8 5 2 6 8 4 5 8 9 9 8 8 7 8 8 8 9 8 7 8 9 10 11 9 3 0 4 9 8 4 3 5 8 11 11 11 12 11 10 9 8 9 9 10 10 10 9 9 9 8 7 10 11 10 10 11 9 9 10 8 7 6 7 8 8 10 10 9 7 8 8 5 7 8 10 10
7 9 8 7 7 5 5 10 7 3 3 8 15 11 4 4 7 8 8 6 3 5 5 0 2 5 6 8 8 8 9 8 8 8 7 6 5 7 7 8 11 11 9 10 11 7 2 -1 1 6 6 4 4 6 9 11 11 10 10 10 9 9 9 9 10 11 11 11 10 10 9 8 8 11 11 11 12 8 7 10 9 7 6 6 6 6 9 12 13 9 7 8 5 6 10 10 9
8 9 7 5 6 5 4 8 7 3 7 12 15 12 4 3 9 8 5 5 3 3 4 1 1 2 5 10 10 9 8 8 7 6 4 5 5 7 7 6 8 11 9 6 6 7 6 5 2 2 4 4 4 5 9 12 11 10 9 9 9 8 8 8 9 11 13 13 11 11 11 10 9 10 11 11 12 10 7 9 11 10 7 6 7 5 5 7 11 11 7 6 4 5 9 10 9
7 6 6 5 4 6 7 7 4 3 10 14 10 5 1 4 7 5 6 7 4 3 3 1 2 2 3 8 9 6 5 6 6 6 6 6 6 7 8 8 7 8 8 5 4 3 2 4 4 3 3 4 4 5 8 12 13 11 8 9 9 8 8 8 9 10 12 14 13 11 10 11 10 10 11 10 11 12 10 9 10 12 8 5 7 6 4 5 7 9 8 7 5 3 7 9 8
5 7 9 7 5 7 9 7 4 6 9 9 7 2 2 6 5 5 7 3 1 4 4 3 4 4 3 4 5 4 4 7 8 8 7 6 6 7 7 9 8 7 7 6 5 5 4 5 6 6 4 4 5 5 7 11 16 14 8 7 9 9 8 9 10 10 10 12 12 11 10 10 10 10 11 11 10 10 10 9 9 11 10 6 7 7 7 8 6 6 8 9 6 2 5 8 8
6 7 9 9 8 8 8 10 10 10 8 6 8 7 5 6 6 5 3 0 5 8 8 8 6 5 3 3 6 7 8 9 8 7 7 7 8 9 7 7 9 9 9 9 8 9 10 10 10 10 8 6 5 5 6 11 16 17 10 6 8 10 9 9 9 10 10 10 11 11 10 10 10 10 11 10 10 9 9 9 8 9 9 7 9 9 8 9 9 6 6 9 7 1 4 8 7
9 8 9 10 11 10 8 10 9 7 6 3 4 4 2 4 6 7 2 3 7 8 8 8 5 4 5 6 9 11 9 8 7 6 7 8 8 7 6 7 8 10 12 14 12 11 10 11 11 12 11 8 7 6 6 11 15 18 13 6 7 9 8 8 8 9 10 10 11 11 10 10 10 11 11 11 11 10 8 8 7 8 7 5 7 9 8 10 12 8 3 6 7 2 3 9 9
10 10 12 12 13 11 7 7 6 4 4 2 -1 -1 2 3 4 6 6 5 5 6 6 6 6 6 7 10 11 10 8 7 6 5 5 6 6 6 7 7 8 11 14 15 14 12 11 13 15 16 16 13 11 6 5 11 14 16 16 10 8 9 8 7 7 7 9 10 11 12 10 10 11 11 12 13 13 12 10 8 7 7 7 6 6 8 8 8 12 12 5 3 7 3 2 8 10
13 12 14 14 12 11 8 7 5 1 2 3 -1 -1 2 3 4 5 7 8 7 8 8 7 8 8 11 14 11 7 7 6 5 4 6 6 6 7 7 10 12 13 12 11 11 12 12 14 15 15 15 14 12 9 9 14 14 13 15 13 10 10 9 7 6 7 8 9 11 12 11 10 10 10 10 11 13 15 14 12 10 9 8 8 7 8 9 7 9 14 11 6 7 5 3 7 9
17 14 14 10 6 5 6 8 6 3 5 7 2 2 5 10 13 8 7 10 8 7 6 6 10 12 14 12 9 7 6 6 6 7 8 7 7 9 8 11 15 15 11 8 8 10 12 13 13 12 12 12 13 17 20 18 13 11 12 13 12 12 11 9 6 6 7 7 9 11 12 11 9 9 8 9 10 12 14 14 13 12 11 12 12 12 13 11 9 13 14 11 8 6 5 6 7
12 8 9 10 8 7 7 7 9 9 9 7 5 6 8 15 17 7 6 9 6 5 4 8 15 14 12 9 7 7 5 6 8 7 6 6 10 11 10 13 15 14 10 7 7 9 11 14 15 17 17 14 11 16 24 18 11 10 10 10 12 13 14 12 9 6 6 6 7 9 11 11 10 10 8 7 8 9 11 11 11 12 11 11 13 14 15 15 14 12 12 13 12 8 5 5 7
6 5 6 10 12 14 13 11 11 11 9 7 7 9 9 14 14 8 7 6 5 6 5 11 14 8 11 11 6 3 2 5 7 5 4 6 10 10 12 16 15 12 9 6 7 7 8 10 12 15 16 14 7 7 19 20 11 10 10 9 10 12 13 12 11 9 7 6 6 7 8 9 9 10 9 8 8 9 10 10 9 10 10 10 11 12 13 16 16 14 12 12 14 11 7 4 5
10 10 10 10 10 11 11 10 11 11 11 11 10 10 9 11 10 6 5 5 9 9 7 13 12 9 10 2 -1 4 2 4 7 4 4 6 9 8 11 17 14 11 9 7 6 5 5 6 7 11 12 14 11 6 12 20 16 10 10 9 9 9 10 10 11 11 10 9 7 6 6 7 8 9 10 9 9 10 10 11 9 9 10 10 10 9 10 12 13 14 13 11 13 13 10 4 3
10 10 12 12 10 9 7 8 10 10 11 13 12 10 8 8 8 4 3 7 10 8 7 10 7 11 11 -10 -9 8 4 4 8 5 4 6 9 9 11 16 15 11 8 6 6 4 4 5 8 13 14 15 18 14 11 16 18 13 11 10 8 7 7 8 10 11 12 12 11 9 6 6 7 7 8 9 10 10 11 12 11 10 10 9 9 9 10 11 11 12 12 11 11 13 12 8 6
7 8 10 12 13 12 11 12 13 11 10 9 9 9 7 9 11 7 6 8 8 8 8 7 3 10 13 -3 -4 7 5 6 9 5 4 4 8 11 13 18 16 10 8 7 6 4 3 4 9 16 18 14 17 19 15 14 16 14 12 10 8 7 6 7 9 11 12 13 14 14 11 7 6 7 7 8 9 9 11 12 12 10 10 9 9 10 10 11 12 11 11 11 11 12 12 12 11
7 6 5 8 12 13 13 14 14 11 9 7 6 7 7 10 13 10 8 8 7 9 7 7 10 10 8 5 3 5 7 10 9 4 3 3 7 11 13 18 16 10 9 7 6 5 3 2 6 14 19 15 13 17 16 14 16 14 11 9 8 7 7 8 10 11 11 12 14 17 17 12 8 7 7 8 8 9 8 9 11 10 9 8 7 9 10 11 13 12 10 10 10 11 11 13 14
10 5 3 5 8 9 10 11 11 9 9 9 8 10 10 11 11 10 9 7 6 8 4 5 10 6 3 6 7 9 11 10 7 4 2 3 7 9 11 15 15 11 9 8 7 6 4 3 4 10 17 15 12 16 18 16 16 14 10 8 6 5 7 9 10 9 9 10 13 16 18 17 12 9 9 9 8 9 8 8 10 9 9 7 6 7 8 10 14 13 12 11 10 11 11 12 14
11 5 3 7 8 8 9 9 10 10 10 11 12 12 11 9 9 8 7 6 6 7 7 6 6 5 8 12 12 13 11 7 5 3 2 4 8 10 11 12 14 14 12 11 10 9 8 8 6 8 13 13 11 14 19 19 18 14 9 7 6 6 8 9 8 7 8 10 12 14 17 18 16 12 10 10 10 10 9 9 10 10 9 8 6 7 7 10 14 14 14 14 10 10 10 10 12
11 9 7 9 10 9 11 11 11 12 11 11 12 12 11 9 8 9 8 8 7 7 7 7 8 10 13 12 11 11 8 6 6 3 3 6 8 11 10 9 11 14 15 16 15 15 14 12 10 9 10 11 10 10 15 18 18 15 10 8 7 6 7 7 6 7 7 8 11 14 16 16 15 15 13 12 12 12 10 9 10 10 10 8 6 7 8 9 13 16 16 12 9 10 11 9 10
9 11 10 10 10 9 9 10 10 10 10 10 10 9 9 8 8 10 9 8 8 9 9 11 12 13 12 10 10 10 9 8 8 5 4 7 10 10 7 6 7 9 12 13 13 13 13 13 14 13 11 10 9 7 9 12 15 15 12 9 8 7 6 6 6 7 7 5 7 12 15 15 13 12 13 12 13 13 11 10 9 8 7 6 5 5 7 8 11 17 17 11 9 10 12 11 8
11 12 12 11 11 9 7 8 9 9 9 10 10 10 10 10 12 12 10 10 10 9 11 11 11 10 9 10 10 10 10 10 8 5 5 9 12 9 6 7 8 8 9 10 9 9 10 11 13 12 11 10 10 9 7 7 9 11 12 11 8 6 5 6 7 7 5 4 5 8 11 13 12 10 10 11 13 12 12 12 10 7 3 2 4 5 7 8 8 13 17 16 14 10 10 15 11
15 15 14 14 13 12 12 10 9 9 10 11 11 12 13 13 13 10 9 10 9 8 8 8 8 8 9 9 8 9 11 9 8 5 6 11 12 9 8 9 9 9 8 8 7 7 8 9 9 9 10 10 11 11 10 9 8 7 8 8 7 6 5 5 6 6 4 3 3 5 7 10 11 10 9 10 13 13 11 12 11 8 4 2 4 6 9 9 7 10 16 19 21 16 10 14 14
15 14 12 13 13 13 14 12 9 7 7 8 8 9 9 9 8 8 8 8 7 7 7 7 9 9 9 9 8 10 10 8 7 8 8 10 10 10 10 8 8 9 8 6 6 7 9 8 8 9 10 11 11 10 10 10 10 9 9 7 6 5 5 5 5 4 4 4 4 4 4 7 10 10 9 10 13 13 12 13 12 9 6 5 6 8 9 9 7 8 12 17 23 22 13 12 15
12 12 10 11 11 10 11 11 9 7 6 7 9 10 11 10 9 8 8 8 7 8 10 13 13 11 9 9 9 10 10 8 8 9 9 8 8 10 9 8 8 8 6 5 6 7 9 9 10 10 9 10 10 10 11 11 10 11 11 10 9 7 5 5 5 5 4 3 4 4 4 4 7 10 9 8 10 11 13 14 14 12 9 8 8 8 8 7 6 4 6 13 23 23 13 12 17
11 13 13 11 8 6 9 11 11 10 10 10 10 11 11 10 10 9 8 8 9 11 13 14 14 12 11 11 11 12 11 9 8 8 8 7 7 9 10 10 8 6 5 6 6 6 8 9 8 7 6 8 9 11 13 14 14 14 14 13 13 12 10 9 7 7 6 4 3 4 5 5 5 7 8 7 8 9 11 13 14 15 14 10 8 8 7 6 5 4 3 8 19 24 15 10 17
11 12 12 11 8 6 7 11 13 11 9 8 8 9 9 8 8 8 7 8 10 11 11 12 13 15 14 11 11 12 11 8 6 7 8 8 8 10 11 10 8 6 6 6 6 7 8 8 6 6 7 9 11 13 15 16 17 18 20 20 18 17 16 15 12 10 8 7 5 3 4 5 5 6 6 7 8 8 9 10 11 13 15 13 10 9 8 7 6 6 6 6 13 23 20 10 10
11 9 9 10 11 12 10 9 10 10 10 10 10 11 11 9 8 7 7 8 8 8 9 12 14 15 12 9 9 11 11 9 6 6 7 8 10 12 12 10 9 8 7 7 8 9 8 6 6 7 9 11 14 17 19 18 17 17 20 23 24 23 22 20 19 16 12 9 8 6 3 3 6 7 6 6 8 9 9 8 8 9 12 14 13 12 11 9 7 6 6 7 11 20 22 12 5
13 10 10 9 10 14 15 11 8 8 9 10 11 14 12 9 9 9 9 8 7 7 10 11 13 14 12 10 10 9 10 10 7 6 7 8 13 14 12 10 10 9 9 8 8 7 5 5 6 8 10 13 16 17 15 13 12 14 17 21 25 27 27 25 22 22 20 14 10 9 6 3 4 5 6 6 8 9 10 9 8 8 9 12 12 13 13 12 10 8 6 6 9 16 20 14 7
Height
5805 5806 5807 5808 5809 5810 5810 5811 5812 5813 5814 5815 5816 5817 5819 5820 5820 5821 5822 5823 5825 5826 5827 5829 5830 5832 5833 5835 5836 5837 5838 5839 5840 5840 5839 5840 5840 5840 5840 5840 5841 5842 5843 5843 5841 5840 5840 5840 5842 5842 5842 5843 5842 5841 5843 5845 5844 5844 5845 5846 5847 5848 5849 5851 5852 5853 5854 5855 5856 5857 5857 5858 5859 5860 5860 5861 5861 5862 5863 5864 5864 5865 5865 5866 5867 5868 5868 5868 5868 5868 5867 5866 5866 5866 5866 5866 5865
5804 5805 5806 5807 5807 5808 5809 5810 5810 5811 5813 5814 5815 5817 5818 5819 5819 5820 5821 5822 5824 5825 5826 5828 5829 5831 5832 5834 5835 5836 5837 5837 5837 5838 5838 5838 5838 5839 5839 5839 5839 5840 5841 5842 5841 5840 5839 5838 5838 5839 5839 5840 5841 5840 5840 5843 5843 5843 5843 5843 5844 5846 5847 5848 5850 5851 5852 5854 5855 5855 5856 5857 5858 5858 5859 5859 5860 5861 5862 5862 5863 5864 5865 5866 5866 5867 5867 5867 5867 5866 5865 5865 5865 5866 5865 5865 5865
5803 5804 5805 5806 5806 5807 5808 5808 5809 5811 5812 5814 5815 5816 5817 5818 5819 5820 5820 5822 5823 5825 5826 5828 5829 5831 5832 5833 5834 5835 5835 5835 5836 5836 5836 5837 5837 5837 5837 5837 5838 5839 5839 5840 5840 5839 5838 5836 5836 5836 5836 5837 5838 5838 5838 5840 5840 5841 5841 5841 5842 5843 5845 5846 5848 5849 5850 5852 5853 5854 5855 5855 5856 5857 5858 5858 5858 5859 5860 5861 5861 5863 5864 5865 5866 5866 5866 5866 5865 5865 5864 5864 5865 5865 5865 5865 5864
5802 5803 5804 5804 5805 5806 5807 5807 5808 5810 5812 5813 5815 5816 5817 5818 5819 5820 5821 5822 5824 5825 5827 5828 5829 5831 5832 5833 5833 5834 5835 5835 5835 5835 5836 5836 5836 5836 5836 5836 5836 5837 5837 5837 5838 5838 5837 5835 5835 5834 5835 5835 5835 5836 5837 5836 5836 5837 5839 5839 5840 5841 5842 5844 5845 5847 5848 5849 5851 5852 5853 5854 5855 5856 5857 5857 5858 5859 5859 5860 5860 5861 5862 5864 5864 5865 5864 5864 5864 5863 5863 5864 5864 5865 5865 5864 5864
5802 5802 5802 5803 5804 5805 5806 5807 5808 5810 5812 5813 5815 5816 5817 5818 5819 5821 5822 5823 5824 5826 5827 5829 5830 5831 5832 5833 5833 5834 5834 5834 5834 5834 5834 5834 5834 5834 5834 5834 5834 5834 5835 5835 5835 5835 5835 5833 5833 5833 5833 5832 5831 5833 5835 5834 5834 5835 5836 5837 5838 5839 5840 5842 5843 5845 5846 5848 5849 5850 5851 5852 5853 5854 5855 5857 5858 5858 5858 5859 5859 5860 5861 5862 5863 5863 5863 5863 5863 5862 5862 5863 5864 5864 5864 5864 5864
5800 5801 5801 5802 5803 5805 5806 5807 5809 5810 5812 5813 5815 5816 5817 5818 5819 5821 5823 5824 5825 5827 5828 5829 5830 5831 5832 5832 5833 5833 5833 5833 5833 5833 5833 5832 5832 5832 5832 5832 5832 5832 5832 5832 5833 5833 5832 5831 5830 5830 5830 5830 5828 5830 5832 5831 5832 5833 5834 5835 5836 5836 5838 5839 5841 5843 5844 5846 5847 5849 5850 5851 5852 5853 5854 5855 5856 5857 5857 5857 5858 5859 5860 5861 5862 5862 5862 5862 5862 5862 5862 5862 5863 5864 5864 5863 5863
5800 5800 5801 5801 5803 5805 5806 5807 5808 5810 5811 5812 5814 5817 5818 5818 5820 5822 5823 5825 5826 5827 5828 5829 5830 5830 5830 5831 5831 5831 5831 5831 5831 5831 5831 5830 5830 5830 5830 5830 5830 5830 5830 5830 5830 5830 5829 5828 5827 5827 5826 5826 5826 5827 5830 5830 5829 5831 5831 5832 5833 5833 5834 5836 5838 5841 5843 5845 5846 5848 5849 5850 5850 5851 5852 5853 5855 5855 5855 5856 5856 5857 5858 5859 5860 5861 5861 5861 5861 5861 5861 5862 5862 5863 5862 5862 5862
5799 5800 5800 5801 5803 5804 5806 5807 5808 5810 5811 5812 5814 5816 5817 5819 5820 5822 5823 5825 5826 5827 5827 5828 5828 5828 5829 5829 5829 5829 5829 5829 5829 5829 5829 5828 5828 5828 5828 5828 5828 5828 5828 5828 5828 5828 5827 5826 5824 5823 5823 5823 5823 5823 5825 5826 5826 5828 5830 5829 5830 5831 5831 5833 5836 5839 5841 5844 5845 5847 5847 5848 5849 5850 5851 5852 5853 5853 5853 5853 5854 5855 5856 5857 5858 5859 5860 5860 5860 5860 5861 5861 5862 5861 5861 5861 5861
5799 5799 5800 5801 5802 5804 5806 5808 5809 5810 5811 5813 5814 5815 5817 5818 5820 5821 5823 5824 5824 5825 5826 5826 5826 5827 5827 5827 5827 5827 5827 5827 5827 5827 5827 5827 5827 5827 5827 5826 5826 5826 5826 5826 5826 5826 5825 5824 5822 5821 5820 5820 5820 5820 5821 5823 5823 5825 5828 5828 5829 5830 5830 5832 5835 5837 5840 5842 5844 5845 5846 5846 5847 5848 5849 5850 5850 5851 5851 5851 5852 5852 5853 5854 5856 5857 5859 5860 5860 5860 5860 5861 5861 5860 5860 5860 5860
5798 5798 5799 5800 5802 5804 5807 5809 5810 5811 5813 5814 5815 5816 5817 5818 5819 5821 5822 5823 5823 5824 5824 5825 5825 5825 5825 5825 5825 5825 5825 5825 5825 5825 5825 5825 5825 5825 5825 5825 5825 5825 5825 5824 5824 5823 5823 5822 5820 5819 5819 5818 5818 5818 5819 5820 5822 5823 5826 5827 5828 5829 5830 5831 5834 5836 5838 5841 5842 5843 5844 5845 5845 5846 5847 5847 5848 5849 5849 5849 5850 5850 5851 5852 5853 5855 5857 5859 5859 5860 5860 5860 5860 5859 5859 5859 5859
5798 5798 5799 5800 5802 5805 5807 5809 5811 5812 5814 5816 5817 5818 5818 5819 5820 5820 5821 5822 5822 5823 5823 5823 5823 5823 5823 5823 5823 5823 5823 5823 5823 5824 5824 5823 5824 5824 5824 5824 5824 5824 5823 5823 5822 5822 5821 5820 5819 5818 5817 5816 5816 5816 5817 5819 5821 5822 5822 5825 5827 5827 5828 5830 5832 5835 5837 5839 5840 5841 5842 5843 5843 5844 5844 5845 5846 5846 5846 5847 5847 5848 5849 5850 5851 5854 5856 5857 5858 5859 5859 5859 5858 5858 5858 5858 5857
5798 5798 5799 5800 5803 5806 5808 5810 5812 5813 5815 5817 5818 5819 5819 5820 5820 5820 5820 5821 5821 5821 5822 5822 5822 5822 5822 5822 5822 5822 5822 5822 5822 5822 5822 5822 5822 5823 5823 5823 5823 5822 5822 5822 5821 5820 5820 5819 5818 5818 5817 5816 5815 5815 5816 5817 5819 5820 5821 5822 5825 5826 5827 5828 5830 5833 5835 5837 5838 5839 5840 5841 5841 5842 5842 5843 5844 5844 5844 5845 5845 5846 5847 5848 5850 5852 5854 5856 5857 5858 5858 5858 5857 5857 5856 5856 5856
5798 5798 5798 5801 5805 5808 5809 5811 5813 5814 5816 5817 5818 5819 5819 5819 5819 5820 5820 5820 5820 5820 5820 5820 5821 5821 5821 5821 5821 5821 5821 5821 5821 5821 5821 5821 5821 5821 5822 5822 5821 5821 5821 5821 5820 5819 5819 5818 5818 5817 5817 5817 5815 5815 5815 5816 5817 5819 5820 5821 5822 5823 5824 5826 5829 5831 5834 5835 5837 5837 5838 5839 5839 5840 5840 5841 5842 5842 5842 5843 5844 5844 5845 5846 5848 5850 5853 5854 5856 5857 5857 5857 5856 5856 5855 5855 5854
5798 5797 5799 5803 5806 5809 5810 5812 5814 5815 5816 5817 5818 5819 5819 5819 5819 5819 5819 5819 5819 5819 5819 5819 5820 5820 5820 5820 5820 5820 5820 5819 5819 5820 5820 5820 5820 5820 5820 5820 5821 5821 5820 5820 5819 5818 5818 5817 5817 5817 5817 5816 5815 5814 5814 5815 5816 5817 5819 5820 5820 5821 5823 5825 5828 5830 5832 5834 5835 5836 5837 5837 5838 5839 5839 5840 5840 5841 5841 5842 5843 5843 5844 5845 5847 5849 5851 5853 5855 5855 5856 5856 5856 5855 5854 5854 5853
5798 5798 5801 5805 5807 5810 5811 5813 5814 5815 5816 5817 5818 5818 5818 5818 5818 5818 5819 5818 5818 5817 5817 5818 5819 5819 5819 5819 5819 5819 5819 5819 5819 5819 5819 5819 5819 5819 5819 5819 5819 5820 5820 5820 5819 5818 5818 5817 5817 5817 5816 5815 5815 5815 5815 5815 5815 5815 5816 5818 5819 5820 5822 5824 5827 5829 5831 5833 5834 5834 5835 5836 5837 5838 5838 5838 5839 5840 5840 5841 5841 5842 5843 5844 5845 5847 5849 5851 5853 5854 5854 5855 5855 5854 5853 5852 5852
5797 5799 5803 5806 5808 5811 5812 5813 5814 5815 5816 5817 5817 5818 5818 5818 5818 5818 5818 5818 5817 5816 5817 5817 5818 5818 5818 5818 5818 5818 5819 5819 5819 5818 5818 5819 5819 5819 5819 5819 5819 5819 5819 5819 5819 5818 5817 5817 5816 5815 5815 5815 5815 5816 5816 5816 5815 5814 5815 5817 5817 5819 5821 5823 5825 5828 5830 5831 5832 5833 5834 5834 5836 5836 5836 5837 5838 5838 5839 5839 5840 5841 5842 5842 5844 5844 5846 5849 5851 5852 5853 5853 5854 5853 5853 5851 5851
5798 5801 5805 5807 5809 5811 5812 5814 5814 5815 5816 5816 5817 5817 5817 5817 5817 5817 5817 5816 5816 5816 5816 5816 5817 5817 5817 5818 5818 5818 5819 5819 5819 5819 5819 5819 5819 5819 5818 5819 5819 5819 5818 5818 5818 5817 5816 5816 5815 5815 5815 5815 5815 5816 5817 5817 5816 5814 5814 5816 5817 5818 5819 5821 5823 5826 5828 5829 5830 5831 5832 5833 5834 5835 5835 5836 5837 5837 5837 5838 5839 5840 5840 5841 5842 5843 5845 5847 5849 5850 5851 5852 5852 5852 5851 5850 5850
5801 5804 5806 5807 5809 5811 5812 5813 5814 5814 5815 5815 5816 5816 5816 5817 5817 5817 5816 5816 5816 5816 5816 5816 5816 5817 5817 5818 5818 5818 5819 5819 5819 5819 5819 5819 5819 5819 5819 5819 5819 5819 5818 5818 5818 5817 5816 5816 5815 5815 5815 5815 5814 5815 5816 5816 5816 5815 5815 5816 5817 5818 5819 5820 5822 5824 5826 5827 5828 5829 5830 5832 5833 5833 5833 5834 5835 5836 5836 5836 5837 5838 5838 5839 5841 5842 5844 5845 5847 5849 5850 5850 5851 5851 5850 5849 5849
5803 5806 5807 5808 5810 5811 5812 5813 5814 5814 5815 5815 5815 5816 5816 5817 5817 5816 5815 5816 5816 5816 5816 5816 5816 5817 5818 5818 5818 5819 5819 5819 5819 5819 5819 5819 5819 5819 5819 5819 5818 5818 5818 5817 5817 5816 5816 5815 5815 5815 5815 5814 5814 5814 5814 5814 5815 5815 5816 5816 5817 5818 5819 5820 5822 5823 5824 5825 5826 5827 5829 5830 5831 5832 5832 5833 5833 5834 5834 5835 5835 5836 5836 5838 5839 5840 5842 5844 5845 5847 5848 5849 5850 5850 5849 5848 5849
5805 5807 5808 5809 5810 5811 5812 5813 5813 5814 5814 5815 5815 5816 5816 5816 5816 5815 5815 5816 5816 5817 5817 5817 5817 5818 5819 5819 5819 5819 5819 5819 5819 5819 5819 5819 5818 5818 5818 5817 5817 5816 5816 5815 5815 5815 5814 5814 5814 5814 5814 5814 5814 5814 5813 5813 5814 5814 5816 5816 5816 5817 5818 5820 5821 5822 5823 5824 5824 5826 5827 5828 5829 5830 5830 5831 5832 5832 5833 5833 5834 5834 5835 5836 5838 5839 5841 5842 5844 5846 5847 5847 5848 5848 5847 5847 5848
5805 5807 5809 5810 5810 5811 5812 5812 5813 5813 5814 5814 5815 5815 5815 5815 5815 5815 5815 5816 5817 5817 5817 5818 5818 5818 5819 5819 5819 5819 5819 5819 5819 5818 5818 5818 5818 5817 5817 5816 5815 5815 5814 5814 5813 5813 5813 5813 5812 5812 5812 5812 5812 5813 5813 5813 5813 5814 5815 5816 5816 5816 5817 5818 5819 5820 5821 5822 5823 5824 5825 5826 5827 5827 5828 5829 5829 5830 5831 5832 5833 5833 5834 5835 5836 5838 5840 5841 5842 5844 5845 5846 5846 5846 5846 5846 5847
5806 5807 5808 5809 5810 5811 5811 5811 5812 5813 5813 5813 5814 5814 5814 5814 5814 5815 5815 5816 5817 5817 5817 5817 5817 5817 5818 5818 5818 5818 5818 5818 5818 5818 5817 5817 5817 5816 5816 5815 5814 5814 5813 5813 5812 5812 5811 5811 5811 5811 5811 5811 5811 5811 5812 5812 5813 5813 5813 5814 5815 5815 5816 5816 5817 5818 5819 5820 5821 5822 5823 5824 5824 5825 5826 5827 5827 5828 5829 5830 5831 5832 5833 5834 5835 5837 5838 5840 5841 5842 5843 5844 5844 5844 5844 5845 5846
5806 5807 5808 5808 5809 5810 5810 5811 5811 5812 5812 5813 5813 5813 5813 5813 5814 5814 5815 5816 5816 5816 5816 5816 5816 5817 5817 5817 5817 5817 5817 5817 5817 5817 5817 5816 5816 5815 5815 5814 5814 5814 5813 5812 5812 5811 5810 5810 5809 5809 5809 5809 5809 5810 5810 5811 5811 5811 5812 5812 5813 5813 5814 5814 5815 5816 5817 5818 5818 5819 5820 5821 5822 5823 5823 5825 5825 5826 5827 5828 5829 5830 5831 5832 5833 5835 5837 5838 5839 5840 5841 5842 5843 5842 5842 5844 5845
5806 5807 5807 5808 5809 5809 5810 5810 5811 5811 5812 5813 5813 5813 5813 5813 5814 5814 5815 5815 5815 5815 5815 5816 5816 5816 5816 5816 5816 5816 5816 5816 5816 5816 5816 5815 5815 5815 5814 5814 5814 5813 5812 5812 5811 5811 5810 5809 5809 5808 5808 5808 5808 5808 5808 5809 5809 5809 5810 5810 5811 5811 5811 5812 5812 5813 5814 5815 5816 5816 5817 5818 5819 5820 5821 5822 5822 5823 5824 5825 5826 5828 5829 5830 5831 5833 5835 5836 5837 5838 5839 5840 5841 5840 5841 5843 5844
5806 5807 5807 5807 5808 5809 5809 5810 5810 5811 5812 5812 5812 5812 5812 5813 5813 5814 5814 5815 5815 5815 5815 5815 5815 5815 5816 5816 5816 5816 5815 5815 5815 5815 5814 5814 5814 5814 5813 5812 5812 5811 5811 5810 5810 5809 5809 5808 5808 5807 5807 5807 5806 5806 5806 5806 5807 5807 5808 5808 5808 5809 5809 5809 5810 5811 5812 5813 5814 5814 5815 5815 5816 5817 5818 5819 5819 5820 5821 5822 5824 5825 5827 5828 5829 5831 5833 5834 5835 5836 5837 5839 5839 5839 5840 5841 5842
5806 5806 5807 5807 5808 5809 5809 5810 5810 5810 5811 5811 5811 5812 5812 5812 5812 5813 5813 5814 5814 5815 5815 5815 5815 5815 5815 5815 5815 5814 5814 5814 5814 5813 5813 5813 5812 5812 5811 5811 5810 5810 5809 5809 5808 5808 5807 5807 5806 5806 5805 5805 5805 5805 5804 5804 5805 5805 5806 5806 5806 5806 5806 5807 5807 5808 5809 5810 5811 5812 5813 5813 5814 5815 5815 5816 5817 5818 5819 5820 5822 5824 5825 5826 5827 5829 5831 5832 5833 5834 5836 5837 5837 5837 5839 5839 5840
5805 5806 5806 5807 5808 5809 5809 5809 5810 5810 5810 5810 5810 5810 5810 5811 5811 5811 5812 5813 5813 5814 5814 5814 5814 5814 5814 5814 5814 5813 5813 5813 5812 5812 5811 5811 5811 5810 5810 5809 5809 5809 5808 5807 5807 5806 5806 5805 5804 5804 5803 5803 5803 5803 5802 5802 5802 5803 5803 5804 5804 5804 5804 5804 5805 5805 5806 5807 5808 5809 5810 5811 5812 5813 5813 5813 5814 5815 5817 5818 5820 5822 5823 5824 5825 5827 5829 5831 5832 5832 5834 5835 5835 5836 5837 5838 5838
5805 5805 5806 5806 5807 5808 5808 5809 5809 5809 5809 5809 5809 5809 5809 5809 5810 5810 5811 5812 5813 5813 5814 5813 5813 5813 5813 5813 5813 5812 5812 5811 5811 5810 5810 5810 5809 5809 5809 5808 5808 5807 5806 5805 5805 5804 5804 5803 5803 5802 5801 5801 5800 5800 5800 5800 5800 5800 5800 5801 5801 5801 5802 5802 5803 5803 5804 5805 5806 5807 5808 5809 5810 5810 5810 5810 5811 5813 5814 5816 5818 5820 5821 5822 5823 5824 5827 5829 5830 5830 5832 5833 5834 5835 5836 5836 5837
5804 5805 5805 5806 5806 5807 5807 5808 5808 5808 5809 5808 5808 5809 5809 5809 5810 5810 5810 5811 5812 5813 5813 5813 5812 5812 5812 5812 5811 5811 5810 5810 5809 5809 5809 5809 5808 5808 5808 5807 5806 5805 5804 5803 5803 5802 5802 5801 5801 5800 5799 5798 5798 5798 5798 5797 5797 5797 5798 5798 5798 5799 5799 5800 5800 5801 5801 5802 5803 5804 5805 5806 5807 5807 5808 5808 5809 5810 5812 5814 5816 5817 5818 5819 5820 5822 5824 5827 5828 5829 5829 5830 5831 5833 5834 5835 5836
5804 5805 5805 5805 5805 5806 5806 5806 5807 5807 5807 5808 5808 5808 5808 5809 5810 5810 5810 5811 5812 5813 5813 5812 5812 5811 5811 5810 5810 5809 5809 5808 5808 5808 5808 5807 5807 5807 5806 5805 5804 5803 5802 5801 5800 5800 5800 5799 5799 5798 5797 5797 5796 5795 5795 5795 5795 5795 5795 5795 5796 5796 5797 5797 5798 5798 5799 5799 5801 5802 5803 5804 5804 5805 5805 5806 5807 5808 5810 5812 5813 5814 5815 5817 5818 5820 5822 5825 5827 5827 5827 5828 5829 5831 5833 5833 5834
5804 5804 5803 5804 5805 5805 5805 5805 5806 5806 5806 5806 5807 5807 5807 5808 5809 5810 5810 5810 5811 5812 5812 5811 5810 5810 5809 5809 5808 5807 5807 5807 5807 5806 5806 5806 5805 5805 5804 5803 5801 5800 5800 5799 5798 5798 5797 5797 5797 5796 5796 5795 5794 5793 5793 5792 5793 5793 5793 5793 5793 5794 5794 5795 5795 5796 5796 5797 5798 5799 5800 5801 5802 5802 5803 5803 5804 5806 5808 5809 5810 5810 5812 5815 5816 5817 5819 5822 5824 5824 5825 5826 5827 5829 5830 5832 5833
5803 5803 5802 5803 5804 5804 5804 5804 5805 5805 5805 5805 5806 5806 5806 5807 5809 5809 5809 5809 5810 5810 5810 5810 5809 5809 5808 5807 5807 5806 5805 5805 5805 5805 5804 5804 5803 5802 5801 5800 5799 5798 5797 5796 5796 5795 5794 5794 5794 5794 5794 5793 5792 5791 5790 5790 5790 5790 5790 5791 5791 5792 5792 5792 5793 5793 5794 5795 5795 5797 5798 5799 5800 5800 5800 5801 5802 5803 5805 5807 5807 5808 5810 5813 5814 5815 5816 5818 5820 5822 5823 5824 5825 5826 5828 5830 5831
5802 5802 5801 5801 5802 5803 5803 5804 5804 5804 5804 5804 5804 5805 5806 5806 5808 5808 5808 5808 5808 5808 5808 5808 5808 5808 5807 5806 5805 5805 5804 5804 5803 5803 5802 5801 5800 5799 5798 5797 5796 5796 5795 5794 5794 5793 5792 5791 5791 5791 5791 5791 5790 5789 5788 5788 5788 5788 5788 5788 5789 5789 5790 5790 5791 5791 5792 5792 5793 5794 5795 5796 5797 5798 5798 5799 5800 5801 5803 5804 5804 5806 5809 5810 5811 5812 5813 5816 5818 5820 5821 5822 5824 5825 5827 5828 5829
5803 5802 5801 5800 5800 5801 5802 5803 5802 5802 5803 5803 5804 5804 5805 5805 5806 5806 5806 5807 5806 5806 5806 5805 5806 5806 5805 5804 5804 5803 5803 5802 5801 5800 5799 5798 5797 5796 5795 5795 5794 5793 5793 5792 5791 5791 5790 5789 5789 5788 5788 5787 5787 5787 5786 5786 5786 5786 5786 5786 5787 5787 5787 5788 5788 5789 5789 5790 5791 5792 5793 5794 5795 5795 5796 5796 5798 5799 5800 5802 5802 5804 5806 5807 5808 5809 5811 5813 5815 5818 5819 5820 5822 5824 5825 5826 5827
5803 5803 5802 5801 5800 5800 5801 5801 5802 5802 5802 5803 5803 5803 5804 5804 5805 5805 5805 5805 5805 5804 5804 5803 5804 5804 5803 5802 5802 5801 5800 5800 5799 5798 5797 5796 5795 5794 5793 5792 5792 5791 5790 5790 5789 5788 5787 5787 5786 5786 5785 5784 5784 5784 5784 5784 5784 5784 5784 5784 5785 5785 5785 5786 5786 5787 5787 5788 5789 5789 5790 5791 5792 5793 5794 5794 5795 5797 5798 5799 5800 5802 5803 5804 5805 5806 5808 5811 5813 5815 5816 5817 5819 5822 5823 5824 5825
5803 5802 5802 5802 5801 5800 5800 5800 5801 5801 5801 5802 5802 5802 5803 5803 5803 5804 5804 5804 5803 5803 5802 5802 5802 5801 5800 5800 5799 5798 5798 5797 5796 5795 5794 5793 5793 5792 5791 5790 5789 5789 5788 5787 5786 5785 5785 5784 5784 5783 5782 5782 5781 5781 5781 5781 5781 5781 5781 5782 5782 5783 5783 5784 5784 5785 5785 5786 5786 5787 5788 5789 5790 5791 5792 5792 5793 5794 5795 5797 5798 5800 5801 5802 5803 5804 5806 5808 5810 5812 5813 5814 5816 5819 5821 5822 5823
5802 5801 5801 5801 5801 5800 5799 5799 5800 5800 5800 5800 5801 5802 5802 5802 5802 5802 5803 5802 5802 5801 5800 5800 5800 5799 5798 5797 5797 5796 5795 5795 5794 5793 5792 5791 5791 5789 5788 5787 5787 5786 5785 5784 5783 5782 5782 5781 5780 5780 5780 5779 5779 5778 5778 5779 5779 5779 5779 5779 5780 5780 5781 5782 5782 5783 5783 5783 5784 5785 5785 5786 5787 5788 5789 5790 5790 5791 5793 5794 5796 5797 5798 5800 5801 5802 5803 5806 5808 5809 5810 5812 5814 5816 5818 5819 5820
5800 5800 5800 5801 5800 5800 5799 5799 5799 5799 5799 5798 5799 5800 5800 5801 5801 5801 5801 5801 5800 5799 5799 5798 5797 5797 5796 5795 5794 5794 5793 5793 5792 5791 5790 5789 5788 5787 5786 5785 5784 5783 5783 5782 5781 5780 5779 5778 5777 5777 5776 5776 5776 5776 5776 5776 5776 5776 5776 5777 5777 5778 5779 5780 5780 5781 5781 5781 5782 5782 5783 5784 5785 5786 5787 5788 5788 5789 5790 5792 5793 5794 5796 5797 5799 5800 5801 5804 5805 5806 5808 5809 5811 5814 5816 5816 5818
5799 5799 5799 5799 5799 5799 5799 5798 5798 5797 5797 5797 5797 5798 5799 5800 5800 5799 5800 5799 5798 5797 5797 5796 5796 5794 5794 5793 5792 5791 5791 5791 5790 5789 5788 5787 5785 5784 5783 5782 5781 5780 5780 5779 5778 5778 5777 5776 5775 5774 5774 5774 5774 5774 5773 5774 5774 5774 5774 5774 5775 5776 5777 5777 5778 5778 5779 5779 5780 5780 5781 5782 5783 5783 5784 5785 5786 5787 5788 5790 5791 5792 5793 5794 5796 5798 5799 5801 5803 5804 5805 5806 5809 5811 5813 5814 5815
5798 5798 5798 5798 5798 5798 5798 5798 5797 5797 5796 5796 5797 5797 5797 5798 5798 5798 5798 5797 5797 5796 5796 5795 5794 5792 5791 5790 5790 5789 5789 5788 5788 5787 5786 5784 5783 5782 5780 5779 5779 5778 5777 5777 5776 5776 5775 5774 5773 5772 5772 5772 5771 5771 5771 5771 5771 5771 5772 5772 5772 5774 5775 5775 5776 5776 5777 5777 5778 5779 5779 5780 5781 5782 5782 5783 5784 5785 5786 5787 5788 5789 5791 5792 5794 5796 5797 5799 5801 5802 5803 5804 5806 5808 5810 5811 5813
5797 5797 5797 5797 5797 5797 5797 5797 5797 5796 5795 5795 5795 5794 5795 5796 5797 5796 5796 5796 5795 5794 5794 5793 5791 5790 5789 5788 5788 5787 5787 5786 5786 5785 5783 5782 5781 5779 5778 5777 5776 5776 5775 5775 5775 5774 5773 5772 5771 5770 5770 5770 5769 5768 5768 5768 5768 5769 5769 5770 5770 5771 5772 5773 5773 5774 5775 5775 5776 5777 5778 5779 5779 5780 5781 5782 5782 5783 5784 5785 5786 5787 5788 5790 5791 5793 5794 5796 5798 5799 5800 5801 5803 5805 5806 5808 5810
5796 5796 5796 5796 5796 5796 5796 5795 5795 5794 5794 5793 5793 5792 5792 5794 5794 5794 5794 5794 5793 5793 5791 5790 5789 5788 5787 5787 5786 5785 5785 5784 5783 5782 5781 5779 5778 5777 5776 5775 5774 5773 5773 5773 5772 5772 5771 5770 5769 5768 5768 5767 5767 5766 5766 5766 5766 5766 5767 5767 5768 5769 5770 5770 5771 5772 5772 5773 5774 5774 5775 5776 5777 5778 5779 5780 5781 5781 5782 5783 5784 5785 5786 5787 5789 5791 5792 5793 5795 5796 5797 5799 5801 5802 5803 5806 5808
5794 5794 5794 5794 5794 5794 5794 5793 5792 5792 5792 5791 5791 5790 5790 5791 5791 5792 5792 5792 5791 5790 5789 5788 5787 5787 5786 5785 5785 5784 5783 5782 5781 5780 5778 5777 5776 5775 5773 5772 5772 5771 5771 5771 5770 5769 5768 5768 5767 5766 5766 5765 5764 5764 5763 5764 5764 5764 5764 5765 5766 5766 5767 5768 5768 5769 5770 5771 5771 5772 5773 5774 5775 5776 5777 5778 5778 5779 5780 5781 5781 5782 5784 5785 5786 5788 5790 5791 5792 5793 5794 5796 5798 5799 5802 5804 5805
5793 5793 5793 5793 5792 5792 5791 5791 5791 5790 5790 5789 5789 5788 5787 5787 5788 5788 5788 5789 5788 5787 5787 5786 5786 5785 5784 5784 5783 5783 5782 5780 5779 5778 5777 5776 5774 5773 5771 5770 5770 5770 5769 5769 5768 5767 5767 5766 5765 5764 5763 5762 5761 5761 5760 5761 5761 5762 5762 5763 5763 5764 5764 5765 5766 5766 5767 5768 5769 5769 5770 5771 5772 5773 5774 5775 5776 5777 5777 5778 5779 5780 5781 5782 5784 5785 5787 5788 5789 5791 5792 5793 5795 5797 5800 5801 5802
5792 5792 5792 5791 5790 5790 5789 5789 5789 5788 5788 5787 5787 5786 5785 5785 5786 5785 5785 5786 5785 5785 5784 5784 5784 5783 5782 5782 5782 5781 5780 5778 5777 5776 5775 5774 5772 5771 5770 5769 5769 5768 5768 5767 5766 5765 5765 5764 5763 5762 5761 5760 5759 5758 5757 5758 5758 5759 5760 5761 5761 5761 5762 5762 5763 5763 5764 5765 5766 5766 5767 5768 5769 5770 5771 5772 5773 5774 5775 5776 5777 5777 5778 5779 5781 5783 5783 5785 5786 5788 5789 5790 5792 5794 5796 5798 5800
5791 5791 5790 5790 5789 5788 5788 5787 5787 5787 5786 5786 5785 5785 5784 5784 5784 5784 5783 5783 5783 5782 5782 5782 5782 5781 5780 5780 5780 5779 5778 5776 5774 5773 5773 5772 5770 5769 5768 5768 5767 5767 5766 5765 5764 5764 5763 5762 5761 5760 5759 5757 5756 5755 5755 5755 5756 5757 5758 5758 5759 5759 5759 5759 5760 5760 5761 5762 5762 5763 5764 5764 5765 5767 5768 5769 5770 5771 5772 5773 5774 5775 5776 5777 5778 5780 5780 5781 5783 5784 5786 5787 5788 5791 5793 5796 5798
5790 5790 5789 5788 5788 5787 5786 5786 5785 5785 5784 5784 5784 5783 5783 5783 5783 5783 5782 5782 5781 5781 5780 5780 5780 5780 5779 5778 5777 5777 5776 5774 5772 5771 5770 5769 5769 5768 5767 5766 5765 5765 5764 5763 5763 5762 5761 5760 5759 5758 5756 5755 5754 5753 5753 5753 5754 5754 5755 5756 5756 5757 5757 5757 5757 5757 5758 5759 5760 5760 5761 5761 5762 5763 5765 5766 5767 5768 5769 5770 5771 5772 5773 5774 5775 5777 5777 5778 5780 5781 5782 5784 5786 5788 5790 5793 5795
5789 5788 5787 5787 5786 5786 5785 5784 5784 5783 5783 5783 5782 5782 5782 5782 5782 5781 5781 5780 5780 5780 5779 5778 5778 5778 5777 5776 5775 5774 5773 5772 5770 5769 5768 5767 5767 5766 5766 5764 5764 5763 5762 5762 5761 5760 5759 5758 5757 5756 5755 5754 5753 5752 5751 5751 5752 5752 5753 5753 5754 5754 5754 5754 5754 5754 5755 5756 5757 5757 5758 5758 5759 5760 5761 5762 5763 5765 5766 5767 5768 5769 5770 5771 5772 5773 5774 5776 5777 5778 5779 5780 5783 5785 5787 5789 5792
5788 5787 5786 5785 5784 5784 5784 5783 5783 5782 5781 5781 5781 5781 5781 5780 5780 5780 5779 5779 5779 5778 5778 5777 5776 5776 5775 5773 5772 5772 5771 5769 5768 5767 5766 5766 5765 5765 5764 5763 5762 5761 5760 5760 5759 5758 5757 5756 5755 5754 5753 5752 5751 5750 5750 5749 5750 5750 5750 5751 5751 5752 5752 5752 5752 5752 5752 5753 5754 5754 5755 5755 5756 5757 5758 5759 5760 5761 5763 5764 5765 5766 5767 5768 5769 5770 5771 5773 5774 5775 5776 5777 5779 5781 5783 5786 5789
5786 5786 5785 5784 5783 5783 5782 5782 5781 5781 5780 5779 5779 5779 5779 5779 5778 5778 5778 5777 5777 5776 5776 5776 5775 5774 5772 5771 5770 5769 5768 5767 5766 5765 5764 5764 5763 5763 5762 5761 5760 5759 5759 5758 5757 5756 5754 5754 5753 5752 5751 5750 5749 5749 5748 5748 5748 5748 5748 5748 5749 5749 5749 5749 5749 5749 5749 5749 5750 5751 5752 5752 5753 5754 5755 5756 5757 5758 5759 5760 5762 5763 5764 5765 5766 5767 5768 5770 5771 5772 5773 5774 5776 5777 5779 5781 5784
5785 5784 5784 5783 5782 5782 5781 5781 5780 5780 5779 5778 5778 5778 5778 5778 5777 5777 5777 5776 5775 5775 5774 5774 5773 5771 5770 5768 5767 5766 5765 5764 5763 5763 5762 5762 5761 5761 5760 5759 5758 5758 5757 5756 5755 5753 5752 5752 5751 5750 5749 5748 5748 5747 5747 5746 5746 5746 5746 5746 5746 5746 5746 5746 5746 5746 5746 5746 5747 5748 5749 5750 5750 5751 5752 5753 5754 5755 5756 5757 5758 5760 5761 5762 5763 5764 5765 5767 5768 5769 5770 5771 5772 5773 5776 5778 5780
5784 5783 5783 5782 5782 5781 5780 5780 5779 5778 5778 5777 5777 5777 5776 5776 5776 5775 5775 5774 5774 5773 5773 5772 5771 5769 5768 5766 5764 5763 5762 5761 5761 5760 5760 5760 5759 5759 5758 5757 5756 5756 5755 5753 5752 5751 5750 5750 5749 5748 5747 5746 5746 5745 5744 5744 5744 5743 5743 5743 5743 5743 5743 5743 5743 5743 5743 5743 5744 5744 5745 5746 5747 5747 5748 5749 5750 5751 5752 5754 5755 5756 5757 5758 5759 5761 5762 5763 5764 5765 5766 5767 5768 5770 5773 5775 5776
5783 5782 5782 5781 5781 5780 5779 5779 5778 5777 5777 5777 5776 5776 5775 5775 5774 5774 5773 5772 5772 5771 5771 5770 5769 5768 5766 5764 5762 5761 5761 5760 5759 5758 5758 5758 5757 5757 5756 5755 5754 5753 5752 5751 5750 5749 5748 5747 5746 5746 5745 5744 5743 5743 5742 5741 5741 5740 5740 5740 5740 5739 5739 5740 5740 5740 5739 5740 5740 5741 5741 5742 5743 5744 5745 5746 5747 5748 5749 5750 5751 5752 5754 5755 5756 5757 5758 5759 5760 5762 5763 5764 5765 5767 5770 5772 5774
5782 5782 5781 5781 5780 5779 5779 5778 5777 5776 5776 5775 5775 5775 5775 5774 5773 5772 5771 5771 5770 5770 5770 5769 5768 5766 5764 5762 5761 5760 5759 5758 5758 5757 5756 5756 5755 5754 5753 5753 5752 5751 5750 5749 5748 5747 5747 5745 5744 5744 5743 5742 5741 5740 5739 5739 5738 5737 5736 5736 5736 5735 5735 5736 5736 5736 5736 5736 5737 5737 5738 5739 5740 5741 5742 5742 5743 5744 5745 5746 5748 5749 5750 5751 5752 5754 5755 5756 5757 5758 5760 5761 5762 5764 5766 5768 5771
5782 5781 5781 5780 5779 5778 5778 5777 5776 5775 5774 5774 5774 5774 5774 5772 5771 5771 5770 5769 5769 5769 5768 5767 5766 5764 5762 5760 5759 5758 5757 5757 5756 5755 5754 5753 5752 5752 5751 5751 5750 5749 5748 5747 5746 5745 5744 5743 5742 5741 5740 5739 5738 5737 5736 5735 5734 5734 5733 5732 5731 5731 5731 5731 5731 5731 5731 5732 5733 5734 5734 5735 5736 5737 5738 5739 5740 5741 5742 5743 5744 5745 5747 5748 5749 5750 5751 5753 5754 5755 5756 5758 5759 5760 5762 5764 5767
5782 5781 5780 5779 5778 5777 5776 5775 5774 5773 5773 5772 5772 5773 5772 5771 5770 5769 5768 5767 5767 5766 5766 5765 5764 5762 5760 5759 5757 5756 5755 5755 5754 5753 5752 5751 5750 5750 5749 5748 5747 5746 5745 5745 5744 5743 5742 5741 5740 5739 5738 5736 5735 5734 5733 5732 5731 5730 5729 5728 5727 5726 5726 5726 5726 5726 5727 5728 5729 5729 5730 5731 5732 5734 5735 5736 5736 5737 5738 5739 5740 5742 5743 5744 5745 5747 5748 5749 5751 5752 5753 5754 5755 5757 5758 5761 5763
5781 5780 5780 5779 5778 5777 5776 5775 5773 5772 5771 5771 5770 5771 5770 5769 5768 5767 5766 5766 5765 5764 5763 5762 5761 5760 5758 5756 5755 5753 5753 5752 5751 5751 5750 5749 5748 5748 5747 5746 5745 5744 5743 5743 5742 5741 5740 5738 5737 5736 5735 5734 5732 5731 5730 5729 5727 5726 5725 5724 5722 5722 5721 5721 5720 5721 5722 5723 5724 5725 5726 5728 5729 5730 5731 5732 5733 5734 5735 5736 5737 5738 5740 5741 5742 5743 5744 5746 5747 5749 5750 5751 5752 5753 5755 5757 5760
5781 5780 5779 5778 5777 5776 5775 5774 5773 5772 5770 5769 5769 5769 5768 5767 5766 5765 5764 5763 5763 5762 5761 5760 5759 5758 5756 5754 5752 5751 5750 5750 5749 5748 5747 5747 5746 5746 5745 5744 5743 5742 5741 5741 5740 5739 5738 5736 5735 5733 5732 5731 5730 5729 5727 5726 5724 5723 5722 5720 5718 5717 5716 5715 5715 5715 5716 5717 5719 5720 5722 5724 5725 5726 5727 5729 5730 5731 5731 5732 5733 5735 5736 5737 5738 5740 5741 5742 5744 5746 5747 5749 5750 5751 5751 5753 5755